Torna al catalogo

CANX-5

AttivoScienzaSSO
NORAD 40056·PAYLOAD·🇨🇦 Canada

Lanciato Jun 30, 2014 da Satish Dhawan Space Centre

Loading…

Prossimi Passaggi (prossime 24 ore)

TLE

AggiornatoSource: Space-Track

Epoca: Sep 14, 2026, 02:37 UTC

1 40056U 14034D   26257.10937656  .00000667  00000-0  92420-4 0  9996
2 40056  98.2969 135.6764 0014064  85.5203 274.7615 14.81410809648501

Traccia CANX-5 in tempo reale con AllMySat

Download on the App Store